Time,TemperatureF,DewpointF,PressureIn,WindDirection,WindDirectionDegrees,WindSpeedMPH,WindSpeedGustMPH,Humidity,HourlyPrecipIn,Conditions,Clouds,dailyrainin,SoftwareType,DateUTC
2013-04-30 00:01:00,58.8,51.3,29.57,SE,135,4.0,4.5,76,0.00,,,0.00,WUHU21623XXSP,2013-04-30 05:01:00,
2013-04-30 00:06:00,58.8,51.3,29.57,ESE,112,7.4,7.4,76,0.00,,,0.00,WUHU21623XXSP,2013-04-30 05:06:00,
2013-04-30 00:11:00,58.8,51.6,29.57,SE,135,4.7,7.4,77,0.00,,,0.00,WUHU21623XXSP,2013-04-30 05:11:00,
2013-04-30 00:16:00,59.0,51.6,29.57,SE,135,5.8,7.4,77,0.00,,,0.00,WUHU21623XXSP,2013-04-30 05:16:00,
2013-04-30 00:21:00,59.2,52.0,29.56,SE,135,5.6,5.8,77,0.00,,,0.00,WUHU21623XXSP,2013-04-30 05:21:00,
2013-04-30 00:26:00,59.4,52.2,29.56,ESE,112,0.0,5.6,77,0.00,,,0.00,WUHU21623XXSP,2013-04-30 05:26:00,
2013-04-30 00:31:00,59.5,52.3,29.57,SE,135,2.7,3.4,77,0.00,,,0.00,WUHU21623XXSP,2013-04-30 05:31:00,
2013-04-30 00:36:00,59.5,52.3,29.57,SE,135,8.1,8.1,77,0.00,,,0.00,WUHU21623XXSP,2013-04-30 05:36:00,
2013-04-30 00:41:00,59.4,52.2,29.57,SE,135,4.7,8.1,77,0.00,,,0.00,WUHU21623XXSP,2013-04-30 05:41:00,
2013-04-30 00:46:00,59.4,52.2,29.56,SE,135,5.4,5.4,77,0.00,,,0.00,WUHU21623XXSP,2013-04-30 05:46:00,
2013-04-30 00:51:00,59.2,52.0,29.56,SE,135,3.8,5.4,77,0.00,,,0.00,WUHU21623XXSP,2013-04-30 05:51:00,
2013-04-30 00:56:00,58.8,51.6,29.56,SE,135,2.9,6.3,77,0.00,,,0.00,WUHU21623XXSP,2013-04-30 05:56:00,
2013-04-30 01:01:00,58.8,52.0,29.56,SE,135,3.1,3.1,78,0.00,,,0.00,WUHU21623XXSP,2013-04-30 06:01:00,
2013-04-30 01:06:00,58.8,52.3,29.56,SE,135,3.1,4.3,79,0.00,,,0.00,WUHU21623XXSP,2013-04-30 06:06:00,
2013-04-30 01:11:00,58.6,52.2,29.56,SE,135,3.6,4.3,79,0.00,,,0.00,WUHU21623XXSP,2013-04-30 06:11:00,
2013-04-30 01:16:00,58.6,52.2,29.56,ESE,112,4.9,4.9,79,0.00,,,0.00,WUHU21623XXSP,2013-04-30 06:16:00,
2013-04-30 01:17:00,58.6,52.2,29.56,SE,135,3.4,4.9,79,0.00,,,0.00,WUHU21623XXSP,2013-04-30 06:17:00,
2013-04-30 01:31:00,58.8,52.7,29.55,SE,135,2.7,2.7,80,0.00,,,0.00,WUHU21623XXSP,2013-04-30 06:31:00,
2013-04-30 02:31:00,59.2,53.4,29.53,SE,135,2.9,2.9,81,0.00,,,0.00,WUHU21623XXSP,2013-04-30 07:31:00,
2013-04-30 03:31:00,59.2,53.7,29.52,SE,135,4.9,4.9,82,0.00,,,0.00,WUHU21623XXSP,2013-04-30 08:31:00,
2013-04-30 04:31:00,60.6,54.5,29.53,SE,135,5.1,5.1,80,0.00,,,0.00,WUHU21623XXSP,2013-04-30 09:31:00,
2013-04-30 05:31:00,61.0,55.2,29.55,SE,135,13.2,13.2,81,0.00,,,0.00,WUHU21623XXSP,2013-04-30 10:31:00,
2013-04-30 06:31:00,60.6,55.1,29.58,WNW,293,0.0,0.0,82,0.00,,,0.00,WUHU21623XXSP,2013-04-30 11:31:00,
2013-04-30 06:57:00,61.0,55.8,29.58,ESE,112,1.8,1.8,83,0.00,,,0.00,WUHU21623XXSP,2013-04-30 11:57:00,
2013-04-30 07:02:00,61.0,55.8,29.58,SE,135,4.9,4.9,83,0.00,,,0.00,WUHU21623XXSP,2013-04-30 12:02:00,
2013-04-30 07:07:00,61.0,55.8,29.58,West,270,4.0,4.9,83,0.00,,,0.00,WUHU21623XXSP,2013-04-30 12:07:00,
2013-04-30 07:12:00,61.2,56.0,29.58,WNW,292,0.0,4.0,83,0.00,,,0.00,WUHU21623XXSP,2013-04-30 12:12:00,
2013-04-30 07:17:00,61.2,56.0,29.57,SSE,157,0.0,2.2,83,0.00,,,0.00,WUHU21623XXSP,2013-04-30 12:17:00,
2013-04-30 07:22:00,61.2,56.0,29.56,ESE,112,2.9,7.8,83,0.00,,,0.00,WUHU21623XXSP,2013-04-30 12:22:00,
2013-04-30 07:27:00,61.3,56.1,29.55,SE,135,4.5,7.8,83,0.00,,,0.00,WUHU21623XXSP,2013-04-30 12:27:00,
2013-04-30 07:32:00,61.5,56.3,29.56,SE,135,4.0,5.8,83,0.00,,,0.00,WUHU21623XXSP,2013-04-30 12:32:00,
2013-04-30 07:37:00,61.7,56.5,29.55,SE,135,4.7,8.3,83,0.00,,,0.00,WUHU21623XXSP,2013-04-30 12:37:00,
2013-04-30 07:42:00,61.7,56.5,29.55,SE,135,9.6,9.6,83,0.00,,,0.00,WUHU21623XXSP,2013-04-30 12:42:00,
2013-04-30 07:47:00,61.9,56.3,29.55,SE,135,4.7,9.6,82,0.00,,,0.00,WUHU21623XXSP,2013-04-30 12:47:00,
2013-04-30 07:52:00,61.9,56.3,29.56,SSE,157,7.6,8.9,82,0.00,,,0.00,WUHU21623XXSP,2013-04-30 12:52:00,
2013-04-30 07:57:00,62.1,56.3,29.56,SE,135,5.4,10.5,82,0.00,,,0.00,WUHU21623XXSP,2013-04-30 12:57:00,
2013-04-30 08:02:00,62.2,56.6,29.56,SE,135,5.4,10.5,82,0.00,,,0.00,WUHU21623XXSP,2013-04-30 13:02:00,
2013-04-30 08:07:00,62.2,56.6,29.57,SE,135,7.6,7.6,82,0.00,,,0.00,WUHU21623XXSP,2013-04-30 13:07:00,
2013-04-30 08:12:00,62.4,56.8,29.56,SSE,157,8.3,11.2,82,0.00,,,0.00,WUHU21623XXSP,2013-04-30 13:12:00,
2013-04-30 08:17:00,62.8,57.2,29.56,SE,135,8.5,11.2,82,0.00,,,0.00,WUHU21623XXSP,2013-04-30 13:17:00,
2013-04-30 08:22:00,62.8,57.2,29.56,SE,135,5.1,8.5,82,0.00,,,0.00,WUHU21623XXSP,2013-04-30 13:22:00,
2013-04-30 08:27:00,63.0,57.0,29.56,ESE,112,4.5,5.1,81,0.00,,,0.00,WUHU21623XXSP,2013-04-30 13:27:00,
2013-04-30 08:32:00,63.3,57.2,29.57,SE,135,3.8,5.1,81,0.00,,,0.00,WUHU21623XXSP,2013-04-30 13:32:00,
2013-04-30 08:37:00,63.9,57.9,29.57,SE,135,4.5,7.2,81,0.00,,,0.00,WUHU21623XXSP,2013-04-30 13:37:00,
2013-04-30 08:42:00,64.2,57.9,29.57,SE,135,7.8,7.8,80,0.00,,,0.00,WUHU21623XXSP,2013-04-30 13:42:00,
2013-04-30 08:47:00,64.9,58.5,29.56,SE,135,6.9,7.8,79,0.00,,,0.00,WUHU21623XXSP,2013-04-30 13:47:00,
2013-04-30 08:49:00,65.1,58.3,29.56,SE,135,6.9,7.8,79,0.00,,,0.00,WUHU21623XXSP,2013-04-30 13:49:00,
2013-04-30 09:31:00,67.8,59.7,29.55,SE,135,6.3,6.3,75,0.00,,,0.00,WUHU21623XXSP,2013-04-30 14:31:00,
2013-04-30 10:31:00,76.6,62.8,29.56,SE,135,6.3,6.3,62,0.00,,,0.00,WUHU21623XXSP,2013-04-30 15:31:00,
2013-04-30 11:31:00,76.6,61.9,29.56,South,180,5.8,5.8,60,0.00,,,0.00,WUHU21623XXSP,2013-04-30 16:31:00,
2013-04-30 12:31:00,78.1,60.8,29.56,SE,135,6.7,6.7,55,0.00,,,0.00,WUHU21623XXSP,2013-04-30 17:31:00,
2013-04-30 13:31:00,80.2,61.1,29.54,ESE,113,6.0,6.0,52,0.00,,,0.00,WUHU21623XXSP,2013-04-30 18:31:00,
2013-04-30 14:31:00,82.0,57.9,29.54,SSE,158,15.4,15.4,44,0.00,,,0.00,WUHU21623XXSP,2013-04-30 19:31:00,
2013-04-30 15:31:00,83.3,55.7,29.54,ESE,113,15.9,15.9,39,0.00,,,0.00,WUHU21623XXSP,2013-04-30 20:31:00,
2013-04-30 16:31:00,83.8,54.7,29.56,SSE,158,8.5,8.5,37,0.00,,,0.00,WUHU21623XXSP,2013-04-30 21:31:00,
2013-04-30 17:24:00,83.1,54.0,29.57,SE,135,7.2,7.2,37,0.00,,,0.00,WUHU21623XXSP,2013-04-30 22:24:00,
2013-04-30 17:29:00,83.1,54.0,29.57,ESE,112,5.4,7.2,37,0.00,,,0.00,WUHU21623XXSP,2013-04-30 22:29:00,
2013-04-30 17:34:00,83.1,54.0,29.58,ESE,112,2.5,6.3,37,0.00,,,0.00,WUHU21623XXSP,2013-04-30 22:34:00,
2013-04-30 17:39:00,82.9,54.7,29.58,SE,135,13.4,13.4,38,0.00,,,0.00,WUHU21623XXSP,2013-04-30 22:39:00,
2013-04-30 17:45:00,82.8,55.3,29.58,SE,135,14.1,14.1,39,0.00,,,0.00,WUHU21623XXSP,2013-04-30 22:45:00,
2013-04-30 17:50:00,82.6,55.1,29.58,WNW,292,5.8,14.1,39,0.00,,,0.00,WUHU21623XXSP,2013-04-30 22:50:00,
2013-04-30 17:51:00,82.8,55.3,29.58,SE,135,6.7,14.1,39,0.00,,,0.00,WUHU21623XXSP,2013-04-30 22:51:00,
2013-04-30 17:57:00,82.8,56.1,29.58,SE,135,15.2,15.2,40,0.00,,,0.00,WUHU21623XXSP,2013-04-30 22:57:00,
2013-04-30 18:01:00,82.6,55.9,29.59,ESE,112,8.5,15.2,40,0.00,,,0.00,WUHU21623XXSP,2013-04-30 23:01:00,
2013-04-30 18:05:00,82.4,56.4,29.59,ESE,112,4.7,8.5,41,0.00,,,0.00,WUHU21623XXSP,2013-04-30 23:05:00,
2013-04-30 18:12:00,82.2,56.2,29.59,SSE,157,16.1,16.1,41,0.00,,,0.00,WUHU21623XXSP,2013-04-30 23:12:00,
2013-04-30 18:16:00,82.0,56.7,29.59,SE,135,5.8,16.1,42,0.00,,,0.00,WUHU21623XXSP,2013-04-30 23:16:00,
2013-04-30 18:22:00,81.7,56.3,29.60,SE,135,10.5,10.5,42,0.00,,,0.00,WUHU21623XXSP,2013-04-30 23:22:00,
2013-04-30 18:27:00,81.5,56.8,29.59,SE,135,2.9,10.5,43,0.00,,,0.00,WUHU21623XXSP,2013-04-30 23:27:00,
2013-04-30 18:41:00,80.8,56.8,29.60,SE,135,8.7,8.7,44,0.00,,,0.00,WUHU21623XXSP,2013-04-30 23:41:00,
2013-04-30 18:46:00,80.6,57.2,29.60,SE,135,4.5,8.7,45,0.00,,,0.00,WUHU21623XXSP,2013-04-30 23:46:00,
2013-04-30 18:51:00,80.4,57.0,29.60,SSE,157,6.7,13.0,45,0.00,,,0.00,WUHU21623XXSP,2013-04-30 23:51:00,
2013-04-30 18:56:00,80.2,56.3,29.61,SE,135,5.1,13.0,44,0.00,,,0.00,WUHU21623XXSP,2013-04-30 23:56:00,
2013-04-30 19:01:00,80.1,56.1,29.61,SE,135,4.0,8.5,44,0.00,,,0.00,WUHU21623XXSP,2013-05-01 00:01:00,
2013-04-30 19:06:00,79.7,55.8,29.61,SE,135,5.8,8.3,44,0.00,,,0.00,WUHU21623XXSP,2013-05-01 00:06:00,
2013-04-30 19:11:00,79.5,55.6,29.61,SSE,157,5.8,8.3,44,0.00,,,0.00,WUHU21623XXSP,2013-05-01 00:11:00,
2013-04-30 19:16:00,79.3,56.1,29.62,SE,135,3.6,5.8,45,0.00,,,0.00,WUHU21623XXSP,2013-05-01 00:16:00,
2013-04-30 19:21:00,79.3,56.7,29.62,SE,135,5.6,5.8,46,0.00,,,0.00,WUHU21623XXSP,2013-05-01 00:21:00,
2013-04-30 19:26:00,79.2,55.9,29.62,South,180,8.5,8.5,45,0.00,,,0.00,WUHU21623XXSP,2013-05-01 00:26:00,
2013-04-30 19:31:00,79.0,55.1,29.62,SE,135,7.2,11.0,44,0.00,,,0.00,WUHU21623XXSP,2013-05-01 00:31:00,
2013-04-30 19:36:00,79.0,55.1,29.63,ESE,112,9.4,11.0,44,0.00,,,0.00,WUHU21623XXSP,2013-05-01 00:36:00,
2013-04-30 19:41:00,78.6,54.8,29.63,SE,135,11.2,11.2,44,0.00,,,0.00,WUHU21623XXSP,2013-05-01 00:41:00,
2013-04-30 19:46:00,78.4,54.0,29.63,SE,135,9.6,15.0,43,0.00,,,0.00,WUHU21623XXSP,2013-05-01 00:46:00,
2013-04-30 19:50:00,78.3,53.9,29.63,SE,135,5.8,15.0,43,0.00,,,0.00,WUHU21623XXSP,2013-05-01 00:50:00,
2013-04-30 19:51:00,78.3,53.9,29.63,SE,135,5.8,15.0,43,0.00,,,0.00,WUHU21623XXSP,2013-05-01 00:51:00,
2013-04-30 20:02:00,77.7,53.4,29.64,SE,135,4.0,4.0,43,0.00,,,0.00,WUHU21623XXSP,2013-05-01 01:02:00,
2013-04-30 20:07:00,77.4,53.1,29.64,ENE,67,3.1,7.6,43,0.00,,,0.00,WUHU21623XXSP,2013-05-01 01:07:00,
2013-04-30 20:12:00,76.8,53.2,29.64,SE,135,3.8,7.6,44,0.00,,,0.00,WUHU21623XXSP,2013-05-01 01:12:00,
2013-04-30 20:17:00,76.8,53.2,29.64,SE,135,3.6,8.7,44,0.00,,,0.00,WUHU21623XXSP,2013-05-01 01:17:00,
2013-04-30 20:22:00,76.3,53.3,29.64,SE,135,0.9,8.7,45,0.00,,,0.00,WUHU21623XXSP,2013-05-01 01:22:00,
2013-04-30 20:27:00,76.1,53.2,29.64,ESE,112,2.7,3.6,45,0.00,,,0.00,WUHU21623XXSP,2013-05-01 01:27:00,
2013-04-30 20:32:00,75.7,53.4,29.64,SE,135,0.0,2.7,46,0.00,,,0.00,WUHU21623XXSP,2013-05-01 01:32:00,
2013-04-30 20:37:00,75.4,53.1,29.65,SE,135,4.5,5.8,46,0.00,,,0.00,WUHU21623XXSP,2013-05-01 01:37:00,
2013-04-30 20:42:00,75.2,53.6,29.65,SE,135,6.9,6.9,47,0.00,,,0.00,WUHU21623XXSP,2013-05-01 01:42:00,
2013-04-30 20:47:00,75.0,54.0,29.65,ESE,112,2.5,6.9,48,0.00,,,0.00,WUHU21623XXSP,2013-05-01 01:47:00,
2013-04-30 20:52:00,74.5,53.5,29.66,SE,135,4.0,4.0,48,0.00,,,0.00,WUHU21623XXSP,2013-05-01 01:52:00,
2013-04-30 20:58:00,74.3,53.9,29.66,SE,135,0.0,4.7,49,0.00,,,0.00,WUHU21623XXSP,2013-05-01 01:58:00,
2013-04-30 21:03:00,74.1,54.3,29.66,SE,135,5.8,5.8,50,0.00,,,0.00,WUHU21623XXSP,2013-05-01 02:03:00,
2013-04-30 21:08:00,73.9,54.6,29.66,SE,135,8.9,8.9,51,0.00,,,0.00,WUHU21623XXSP,2013-05-01 02:08:00,
2013-04-30 21:13:00,73.9,55.1,29.66,SSE,157,6.7,8.9,52,0.00,,,0.00,WUHU21623XXSP,2013-05-01 02:13:00,
2013-04-30 21:18:00,73.9,55.1,29.66,SE,135,5.6,6.7,52,0.00,,,0.00,WUHU21623XXSP,2013-05-01 02:18:00,
2013-04-30 21:23:00,73.8,55.5,29.66,ESE,112,10.3,14.1,53,0.00,,,0.00,WUHU21623XXSP,2013-05-01 02:23:00,
2013-04-30 21:28:00,73.9,56.2,29.66,SE,135,8.9,14.1,54,0.00,,,0.00,WUHU21623XXSP,2013-05-01 02:28:00,
2013-04-30 21:33:00,73.9,56.2,29.66,SE,135,8.9,9.2,54,0.00,,,0.00,WUHU21623XXSP,2013-05-01 02:33:00,
2013-04-30 21:37:00,73.8,56.0,29.66,SSE,157,16.8,16.8,54,0.00,,,0.00,WUHU21623XXSP,2013-05-01 02:37:00,
2013-04-30 21:38:00,73.8,56.0,29.66,SSE,157,16.8,16.8,54,0.00,,,0.00,WUHU21623XXSP,2013-05-01 02:38:00,
2013-04-30 22:31:00,72.5,56.1,29.69,SE,135,8.5,8.5,56,0.00,,,0.00,WUHU21623XXSP,2013-05-01 03:31:00,
2013-04-30 23:31:00,71.1,55.3,29.71,SSE,158,4.9,4.9,57,0.00,,,0.00,WUHU21623XXSP,2013-05-01 04:31:00,